Change the Weather History Date:

Saturday, July 13, 2013

  Actual Average Record
Temperature  
Mean Temperature 70 °F 63 °F  
Max Temperature 84 °F 74 °F 88 °F (1960)
Min Temperature 56 °F 53 °F 35 °F (1934)
Degree Days  
Heating Degree Days 0 3  
Month to date heating degree days 50 39  
Since 1 June heating degree days 121 199  
Since 1 July heating degree days 50 39  
Cooling Degree Days 5 1  
Month to date cooling degree days 12 17  
Year to date cooling degree days 160 41  
Since 1 June cooling degree days 147 40  
Growing Degree Days 20 (Base 50)    
Moisture  
Dew Point 42 °F    
Average Humidity 34    
Maximum Humidity 64    
Minimum Humidity 11    
Precipitation  
Precipitation 0.00 in 0.07 in 1.10 in (1939)
Month to date precipitation 0.40 0.83  
Year to date precipitation 3.17 4.36  
Snow  
Snow 0.00 in 0.00 in 0.00 in (2002)
Month to date snowfall 0.0 0.0  
Since 1 June snowfall 0.0 0.0  
Since 1 July snowfall 0.0 0.0  
Snow Depth 0.00 in    
Sea Level Pressure  
Sea Level Pressure 29.99 in    
Wind  
Wind Speed 5 mph (NE)    
Max Wind Speed 13 mph    
Max Gust Speed -    
Visibility 10 miles    
Events      
T = Trace of Precipitation, MM = Missing Value Source: NWS Daily Summary

Daily Weather History Graph

Daily Weather History Graph

Search for Another Location

Airport or City:

Trip Planner

Search our weather history database for the weather conditions in past years. The results will help you decide how hot, cold, wet, or windy it might be!

Date:

Astronomy

Jul. 13, 2013 Rise Set
Actual Time 3:48 AM AKDT 12:03 AM AKDT
Civil Twilight Sun does not rise Sun does not rise
Nautical Twilight Sun does not rise Sun does not rise
Astronomical Twilight Sun does not rise Sun does not rise
Moon 12:06 PM AKDT (7/13) 11:48 PM AKDT (7/13)
Length of Visible Light 24h 00m
Length of Day
20h 15m
Waxing Crescent, 27% of the Moon is Illuminated
Jul 13
Waxing Crescent
Jul 15
First Quarter
Jul 22
Full
Jul 29
Last Quarter
Aug 6
New

Hourly Weather History & Observations

Time (AKDT) Temp. Dew Point Humidity Pressure Visibility Wind Dir Wind Speed Gust Speed Precip Events Conditions
12:53 AM 63.0 °F 39.0 °F 41% 29.98 in 10.0 mi North 5.8 mph - N/A   Scattered Clouds
1:53 AM 63.0 °F 39.9 °F 43% 29.98 in 10.0 mi North 9.2 mph - N/A   Scattered Clouds
2:53 AM 62.1 °F 39.9 °F 44% 29.99 in 10.0 mi North 8.1 mph - N/A   Scattered Clouds
3:53 AM 61.0 °F 39.9 °F 46% 29.99 in 10.0 mi North 6.9 mph - N/A   Scattered Clouds
4:53 AM 55.9 °F 42.1 °F 60% 30.00 in 10.0 mi NE 9.2 mph - N/A   Partly Cloudy
5:53 AM 57.9 °F 43.0 °F 58% 30.01 in 10.0 mi NNE 6.9 mph - N/A   Partly Cloudy
6:53 AM 62.1 °F 43.0 °F 50% 30.01 in 10.0 mi North 4.6 mph - N/A   Partly Cloudy
7:53 AM 64.9 °F 44.1 °F 47% 30.01 in 10.0 mi NE 3.5 mph - N/A   Partly Cloudy
8:53 AM 66.9 °F 44.1 °F 44% 30.01 in 10.0 mi NNE 3.5 mph - N/A   Partly Cloudy
9:53 AM 71.1 °F 44.1 °F 38% 30.01 in 10.0 mi Calm Calm - N/A   Scattered Clouds
10:53 AM 73.0 °F 39.0 °F 29% 30.01 in 10.0 mi ESE 5.8 mph - N/A   Scattered Clouds
11:53 AM 75.0 °F 42.1 °F 31% 30.01 in 10.0 mi ESE 5.8 mph - N/A   Partly Cloudy
12:53 PM 77.0 °F 41.0 °F 28% 30.00 in 10.0 mi Variable 4.6 mph - N/A   Partly Cloudy
1:53 PM 78.1 °F 39.9 °F 25% 29.99 in 10.0 mi Calm Calm - N/A   Partly Cloudy
2:53 PM 82.0 °F 42.1 °F 24% 29.99 in 10.0 mi Calm Calm - N/A   Partly Cloudy
3:53 PM 82.0 °F 37.0 °F 20% 29.99 in 10.0 mi North 3.5 mph - N/A   Partly Cloudy
4:53 PM 82.0 °F 39.0 °F 22% 29.98 in 10.0 mi SE 4.6 mph - N/A   Partly Cloudy
5:53 PM 82.0 °F 37.9 °F 21% 29.97 in 10.0 mi Calm Calm - N/A   Partly Cloudy
6:53 PM 82.9 °F 39.0 °F 21% 29.97 in 10.0 mi SSE 5.8 mph - N/A   Partly Cloudy
7:53 PM 82.4 °F 37.4 °F 20% 29.96 in 10.0 mi Calm Calm - N/A   Partly Cloudy
8:53 PM 82.4 °F 41.0 °F 23% 29.96 in 10.0 mi SSW 3.5 mph - N/A   Partly Cloudy
9:53 PM 80.6 °F 41.0 °F 24% 29.97 in 10.0 mi SSW 3.5 mph - N/A   Partly Cloudy
10:53 PM 73.4 °F 55.4 °F 53% 29.98 in 10.0 mi Calm Calm - N/A   Partly Cloudy
11:53 PM 66.2 °F 53.6 °F 64% 29.99 in 10.0 mi Calm Calm - N/A   Partly Cloudy